Content
SEND FEEDBACK

Daily
Averages
Monthly
Summary
Switzerland

GENEVA, SWITZERLAND


Home > Europe > Switzerland
Elevation: 1364 feet     Latitude: 46 15N     Longitude: 006 08E

WEATHER
 
SELECT A DAY
Number of Records: 306,006;   Date Range: 7/1/96 - 8/30/14
 
SHARE

PRINT THIS DATA

[ ← Previous Day ]
WEATHER ALMANAC - APRIL 18, 2013
[ Next Day → ]
[ °C ]   °F
Weather ElementAverageHighLow
Temperature65.7 °F77 °F (2:50 pm)55 °F (6:00 am)
Dewpoint47.9 °F50 °F (7:20 am)42.8 °F (9:20 pm)
Humidity51.5 %77 % (12:50 am)26 % (4:00 pm)
Barometer30.12 in30.18 in (8:50 am)30.02 in (4:00 pm)
Wind Speed4.9 mph11.5 mph (3:00 pm)
Weather ElementAverage
Visibility7.4 mi
Wind DirectionSSE (165 °)

Weather ElementTotal
Precipitation---
Cooling Degree Days1 (Base 65)
Growing Degree Days16 (Base 50)
Averaged from 66 records on April 18, 2013
WEATHER CONDITIONS BREAKOUT
WIND DIRECTION BREAKOUT
WEATHER BY HOUR - APRIL 18, 2013
[ °C ]   °F
Local TimeTemperatureDewpointHumidityBarometerVisibilityWind DirectionWind SpeedGust SpeedPrecipitationEventsConditions
12:20 AM57.2 °F48.2 °F72 %30.15 inVariable1.2 mphClear
12:50 AM55.4 °F48.2 °F77 %30.15 inVariable1.2 mphClear
1:00 AM56.0 °F49.0 °F69 %30.16 inWest (270°)3.5 mph
1:20 AM57.2 °F48.2 °F72 %30.15 inWSW (240°)4.6 mphClear
1:50 AM64.4 °F46.4 °F52 %30.15 in6.2 miSSW (210°)6.9 mphPartly Cloudy
2:00 AM63.0 °F45.0 °F41 %30.13 in25.0 miWSW (240°)5.8 mphScattered Clouds
2:20 AM60.8 °F46.4 °F59 %30.15 in6.2 miWSW (240°)5.8 mphScattered Clouds
2:50 AM57.2 °F48.2 °F72 %30.15 in6.2 miWSW (240°)4.6 mphScattered Clouds
3:00 AM58.0 °F47.0 °F57 %30.15 inSouth (180°)2.3 mph
3:50 AM59.0 °F48.2 °F67 %30.15 in6.2 miSW (220°)4.6 mphMostly Cloudy
4:00 AM56.0 °F48.0 °F66 %30.16 inSW (220°)4.6 mph
4:20 AM55.4 °F48.2 °F77 %30.15 in6.2 miVariable3.5 mphPartly Cloudy
4:50 AM57.2 °F48.2 °F72 %30.15 in6.2 miCalmMostly Cloudy
5:20 AM57.2 °F48.2 °F72 %30.15 in6.2 miVariable1.2 mphMostly Cloudy
5:50 AM57.2 °F48.2 °F72 %30.15 in6.2 miVariable1.2 mphScattered Clouds
6:00 AM55.0 °F48.0 °F71 %30.16 inNE (40°)2.3 mph
6:20 AM57.2 °F48.2 °F72 %30.15 in6.2 miVariable2.3 mphMostly Cloudy
6:50 AM57.2 °F48.2 °F72 %30.15 in6.2 miVariable3.5 mphMostly Cloudy
7:00 AM57.0 °F48.0 °F64 %30.16 inNE (40°)1.2 mph
7:20 AM57.2 °F50.0 °F77 %30.15 in6.2 miCalmMostly Cloudy
7:50 AM57.2 °F48.2 °F72 %30.15 in6.2 miVariable1.2 mphMostly Cloudy
8:00 AM59.0 °F48.0 °F57 %30.16 in17.0 miSW (230°)2.3 mphMostly Cloudy
8:20 AM60.8 °F48.2 °F63 %30.15 in6.2 miSW (220°)4.6 mphMostly Cloudy
8:50 AM64.4 °F48.2 °F56 %30.18 in6.2 miVariable3.5 mphScattered Clouds
9:00 AM63.0 °F46.0 °F43 %30.15 inSSW (200°)5.8 mph
9:20 AM66.2 °F48.2 °F52 %30.15 in6.2 miSouth (180°)4.6 mphScattered Clouds
9:50 AM68.0 °F50.0 °F52 %30.15 in6.2 miVariable2.3 mphScattered Clouds
10:00 AM67.0 °F48.0 °F39 %30.13 inSW (230°)4.6 mph
10:20 AM68.0 °F48.2 °F49 %30.15 in6.2 miVariable2.3 mphMostly Cloudy
10:50 AM69.8 °F48.2 °F46 %30.15 in6.2 miSSW (210°)5.8 mphMostly Cloudy
11:20 AM71.6 °F50.0 °F46 %30.15 in6.2 miWest (270°)3.5 mphScattered Clouds
11:50 AM73.4 °F48.2 °F41 %30.15 in6.2 miSSW (210°)8.1 mphPartly Cloudy
12:00 PM73.0 °F46.0 °F27 %30.10 inSW (220°)8.1 mph
12:20 PM73.4 °F46.4 °F38 %30.15 in6.2 miSSW (210°)9.2 mphPartly Cloudy
12:50 PM75.2 °F48.2 °F38 %30.12 in6.2 miSSW (210°)8.1 mphPartly Cloudy
1:00 PM74.0 °F48.0 °F28 %30.08 inSW (220°)8.1 mph
1:20 PM75.2 °F50.0 °F41 %30.12 in6.2 miSSW (210°)5.8 mphPartly Cloudy
1:50 PM75.2 °F48.2 °F38 %30.12 in6.2 miSSW (210°)6.9 mphScattered Clouds
2:00 PM75.0 °F48.0 °F28 %30.06 in19.0 miSSW (210°)9.2 mphScattered Clouds
2:20 PM75.2 °F48.2 °F38 %30.12 in6.2 miSW (220°)10.4 mphScattered Clouds
2:50 PM77.0 °F50.0 °F39 %30.09 in6.2 miSW (220°)10.4 mphScattered Clouds
3:00 PM76.0 °F48.0 °F27 %30.04 inSSW (210°)11.5 mph
3:20 PM77.0 °F50.0 °F39 %30.09 in6.2 miSW (230°)9.2 mphScattered Clouds
3:50 PM77.0 °F50.0 °F39 %30.09 in6.2 miWSW (250°)8.1 mphScattered Clouds
4:00 PM76.0 °F48.0 °F26 %30.02 inSW (220°)11.5 mph
4:20 PM77.0 °F50.0 °F39 %30.06 in6.2 miWSW (250°)9.2 mphScattered Clouds
4:50 PM77.0 °F50.0 °F39 %30.06 in6.2 miWest (280°)8.1 mphScattered Clouds
5:20 PM77.0 °F50.0 °F39 %30.06 in6.2 miWNW (290°)10.4 mphPartly Cloudy
5:50 PM75.2 °F48.2 °F38 %30.06 in6.2 miNW (310°)5.8 mphPartly Cloudy
6:00 PM73.0 °F48.0 °F31 %30.02 inWNW (300°)6.9 mph
6:20 PM69.8 °F50.0 °F49 %30.06 in6.2 miNorth (350°)6.9 mphPartly Cloudy
6:50 PM69.8 °F50.0 °F49 %30.06 in6.2 miNNW (340°)6.9 mphScattered Clouds
7:00 PM69.0 °F48.0 °F36 %30.04 inNW (320°)5.8 mph
7:20 PM68.0 °F48.2 °F49 %30.06 in6.2 miNNW (330°)3.5 mphScattered Clouds
7:50 PM66.2 °F48.2 °F52 %30.09 in6.2 miNW (320°)3.5 mphMostly Cloudy
8:00 PM65.0 °F48.0 °F43 %30.07 in19.0 miNNE (20°)3.5 mphScattered Clouds
8:20 PM66.2 °F48.2 °F52 %30.09 in6.2 miNNE (20°)4.6 mphMostly Cloudy
8:50 PM64.4 °F46.4 °F52 %30.09 in6.2 miNorth (360°)4.6 mphMostly Cloudy
9:00 PM64.0 °F44.0 °F38 %30.10 inNorth (350°)3.5 mph
9:20 PM64.4 °F42.8 °F45 %30.12 in6.2 miVariable3.5 mphMostly Cloudy
9:50 PM62.6 °F42.8 °F48 %30.12 in6.2 miVariable1.2 mphMostly Cloudy
10:00 PM63.0 °F43.0 °F37 %30.12 inNW (320°)3.5 mph
10:20 PM62.6 °F46.4 °F55 %30.15 in6.2 miVariable1.2 mphRainLight Rain Showers
10:50 PM59.0 °F50.0 °F72 %30.15 in6.2 miVariable1.2 mphMostly Cloudy
11:20 PM60.8 °F46.4 °F59 %30.15 in6.2 miVariable2.3 mphMostly Cloudy
11:50 PM59.0 °F46.4 °F63 %30.15 in6.2 miVariable1.2 mphOvercast
Hourly data recorded from LSGG, located miles away from Geneva, Switzerland







STORIES FROM OUR PARTNERS